Forecast Directory
U.S. Alerts
El Dorado Weather Logo
U.S. Radar Loop Conditions Map

U.S. Color Satellite North America Color Infrared Animated Satellite Loop

Interactive Wx Map Live U.S. Google Map Radar Thumbnail Image

US Precipitation 1 day, 24 hour precipitation map

US Temperatures US Conditions Map

US Climate Data US Conditions Map


NOAA NWS Hourly Roundups by Site
Regional Weather Roundup for Sacramento, CA
Select Site:  

000
ASUS46 KSTO 271115
RWRCA

NORTHERN AND CENTRAL CA REGIONAL WEATHER ROUNDUP
NATIONAL WEATHER SERVICE SACRAMENTO CA
300 AM PST SUN NOV 27 2022

NOTE: FAIR INDICATES FEW OR NO CLOUDS BELOW 12,000 FEET WITH NO
SIGNIFICANT WEATHER AND/OR OBSTRUCTIONS TO VISIBILITY.

CAZ001-003-271200-
NORTHWEST AREA

CITY           SKY/WX    TMP DP  RH WIND       PRES   REMARKS
CRESCENT CITY  CLEAR     46  41  82 N9        30.22F HAZE
UKIAH          CLEAR     37  34  89 CALM      30.14S
$$

CAZ006-505>513-271200-
BAY AREA

CITY           SKY/WX    TMP DP  RH WIND       PRES   REMARKS
SANTA ROSA     CLEAR     35  33  92 CALM      30.12F
SAN RAFAEL     N/A       46  MM  MM MISG
NAPA           CLEAR     37  32  82 N5        30.13S WCI  33
CONCORD        CLEAR     42  35  76 CALM      30.12R
OAKLAND CITY   N/A       47  MM  MM MISG
OAKLAND        CLEAR     42  36  79 CALM      30.12F
SAN FRAN CITY  N/A       49  MM  75 MISG
SAN FRAN ARPT  CLEAR     48  42  80 W3        30.12S
LIVERMORE      CLEAR     39  32  76 CALM      30.11F
HAYWARD        CLEAR     45  36  70 E3        30.11F
REDWOOD CITY   N/A       39  MM  87 MISG
MOFFETT ARPT   CLEAR     43  36  75 CALM      30.12S
SAN JOSE ARPT  CLEAR     42  35  76 S3        30.12S
$$
CAZ034-037-514>518-271200-
CENTRAL COAST

CITY           SKY/WX    TMP DP  RH WIND       PRES   REMARKS
WATSONVILLE    CLEAR     43  32  65 NW3       30.12S
SALINAS        CLEAR     41  38  89 E5        30.12R
MONTEREY       CLEAR     43  31  62 CALM      30.11R
SAN LUIS OBISP CLEAR     40  35  83 CALM      30.06S
SANTA MARIA    CLEAR     41  38  89 SE3       30.06S
HALF MOON BAY  CLOUDY    41  39  93 NE5       30.13S
$$
CAZ015-016-271200-
NORTHERN SACRAMENTO VALLEY

CITY           SKY/WX    TMP DP  RH WIND       PRES   REMARKS
REDDING        CLEAR     55  28  35 N9        30.08F
RED BLUFF      CLEAR     45  31  58 NW7       30.11S
OROVILLE       CLEAR     41  37  86 SE5       30.11R
$$
CAZ016>018-271200-
SOUTHERN SACRAMENTO VALLEY

CITY           SKY/WX    TMP DP  RH WIND       PRES   REMARKS
AUBURN         CLEAR     46  30  53 E6        30.11R
BEALE AFB      CLEAR     41  34  75 E6        30.11R
LINCOLN        FAIR      32  32 100 NE5       30.10S WCI  27
SAC INTL ARPT  CLEAR     43  33  68 SE3       30.11R
MATHER AIRPORT CLEAR     37  34  87 SE8       30.10S WCI  31
DOWNTOWN SAC   N/A       41  MM  MM MISG
SAC EXEC ARPT  CLEAR     37  34  89 E3        30.11R
VACAVILLE      CLEAR     38  31  76 SW3       30.12R
TRAVIS AFB     CLEAR     41  34  77 CALM      30.10R
$$
CAZ019>021-271200-
SAN JOAQUIN VALLEY

CITY           SKY/WX    TMP DP  RH WIND       PRES   REMARKS
STOCKTON       CLEAR     39  33  79 E3        30.11R
MODESTO        LGT SNOW  37  35  92 SE5       30.11R FOG     WCI  33
MERCED         CLEAR     42  34  73 E3        30.11S
LEMOORE        CLEAR     36  24  62 SW6       30.13S WCI  31
FRESNO         PTCLDY    42  35  76 CALM      30.13S HAZE
HANFORD        CLEAR     34  31  88 CALM      30.13F FOG
PORTERVILLE    CLEAR     40  32  73 E6        30.13F
BAKERSFIELD    CLEAR     43  29  57 E3        30.13F HAZE
$$
CAZ011-012-071-271200-
NORTHERN MOUNTAINS

CITY           SKY/WX    TMP DP  RH WIND       PRES   REMARKS
YREKA          CLEAR     24  19  81 CALM      30.23F
MOUNT SHASTA   CLEAR     29  23  78 VRB3      30.17F
ALTURAS        PTCLDY    16  13  88 CALM      30.18F
$$
CAZ011-012-071-271200-
SIERRA NEVADA MTNS

CITY           SKY/WX    TMP DP  RH WIND       PRES   REMARKS
BLUE CANYON    CLEAR     45  11  25 CALM      30.16R
TRUCKEE        FOG       18  16  93 CALM      30.19S VSB 3/4
TAHOE VLY ARPT CLEAR     20  17  88 S3        30.17F
MAMMOTH LAKES  FAIR      12   5  73 N3        30.20S
$$


 

View Past Reports for Sacramento, CA.

Products Courtesy of NOAA-NWS
NWS Information Parsing Script by Ken True at Saratoga Weather - Script by SE Lincoln Weather.



Contact Us Contact Us Thumbnail | Mobile Mobile Phone Thumbnail
Never base any life decisions on weather information from this site or anywhere over the Internet.
Site is dedicated to our Lord & Savior Jesus Christ | Random Quotes of Jesus

Copyright © 2022 El Dorado Weather, Inc. | Site Designed By:  Webmaster Danny